Simultaneous Nadir Overpasses (SNOs) Predictions

Prediction of SNOs between GOES-16 and AQUA Satellite Orbit:

Table of predicted SNOs for the next 14.0 days since TLE Epoch: 12/3/2022
Index Date Time (GOES-16) GOES-16 Lat,Lon AQUA Lat,Lon Distance(km) Time Diff (sec)
1 12/03/2022 06:34:51 -0.01, -75.19 -0.51, -72.83 269.13 80
2 12/03/2022 18:53:24 0.01, -75.20 -0.58, -77.97 315.16 80
3 12/05/2022 18:43:08 0.01, -75.21 0.08, -74.82 44.50 80
4 12/07/2022 18:30:12 -0.00, -75.22 0.76, -71.67 404.66 80
5 12/08/2022 06:51:16 -0.00, -75.23 0.31, -76.77 175.41 80
6 12/10/2022 06:35:39 0.00, -75.25 -0.33, -73.61 185.32 80
7 12/10/2022 18:56:52 -0.00, -75.25 -0.74, -78.76 398.62 80
8 12/12/2022 18:43:55 -0.01, -75.28 -0.07, -75.60 37.01 80
9 12/14/2022 18:33:38 -0.01, -75.31 0.61, -72.45 325.36 80
10 12/15/2022 06:54:42 0.00, -75.32 0.46, -77.56 253.86 80
